FENGYUN 1C DEB

Satellite information

Favourite Embed

Satellite Type and Status

DEBRISIN ORBIT

Key statistics

Satellite FENGYUN 1C DEB at a glance.

Uptime

9714

Days in orbit

Revolutions

≈ 14.4

Per day

Orbit

SSO

Sun Synchronous Orbit

Inclination

98.9

Latest

Satellite identification and parameters

Extended collection of information and parameters for FENGYUN 1C DEB.

Object identification

Identified? True

Debris? True

Object name: FENGYUN 1C DEB

International designator: 1999-025ABG

Object number (NORAD): 30345

Object ID (CCSDS): 30345

Country: PEOPLES REPUBLIC OF CHINA (PRC)

Current information (Y/N): Y

RCS size: SMALL

Orbital parameters

Period: 99.886 minutes

Inclination: 98.9207 deg

SMA: 7131.195 km

Apoapsis: 765.381 km

Periapsis: 740.74 km

RAAN: 45.4441 deg

Eccentricy: 0.00172769

Argument of periapsis: 244.2796 deg

Mean anomaly: 115.6608 deg

Mean motion: 14.41648116 rev/day

Mean motion (dot): 0.00009963 rev/day2

B* drag term: 0.0030640071 1/REarth

Two-line elements (TLE)

Creation date: Dec. 12, 2025, 10:14 a.m.

Reference frame: TEME

Reference center: EARTH

Epoch: Dec. 12, 2025, 2:27 a.m. UTC

TLE line 0: 0 FENGYUN 1C DEB

TLE line 1: 1 30345U 99025ABG 25346.10227814 .00009963 00000-0 30640-2 0 9997

TLE line 2: 2 30345 98.9207 45.4441 0017277 244.2796 115.6608 14.41648116977648

Live tracking on map

Real-time ground track for satellite FENGYUN 1C DEB.

In-orbit conjunctions

A list of the most updated potential collisions computed for object FENGYUN 1C DEB.

Target Orbit TCA Probability of collision Miss distance Type
METEOR 2-2 DEB LEO 2025-05-20 00:03:02 0.0001150659 183.0 (m) DEBRIS
IRIDIUM 17 LEO 2025-02-20 03:53:09 0.0007974429 520.0 (m) PAYLOAD
PEGASUS DEB LEO 2024-12-26 09:35:15 0.0001413363 133.0 (m) DEBRIS
DELTA 1 R/B SSO 2024-10-23 01:05:42 0.0001653184 499.0 (m) ROCKET BODY
THORAD AGENA D DEB SSO 2024-08-08 20:35:23 0.0001013712 80.0 (m) DEBRIS

Associated space launch

Chinese polar orbiting meteorological satellite

FENGYUN 1C DEB was lifted into orbit during the mission ‘Long March 4B | Feng Yun 1C’, on board a Long March 4B space rocket.

The launch took place on May 10, 1999, 1:33 a.m. from Launch Complex 7.

For more information about the launch, click the button.

Launch to space Long March 4B | Feng Yun 1C
Long March 4B | Feng Yun 1C

Agency: N/A

Status: Launch Successful

Launch date: May 10, 1999, 1:33 a.m. UTC

Rocket: Long March 4B

Launch pad: Launch Complex 7

Location: Taiyuan Satellite Launch Center, People's Republic of China

...

Latest news about this satellite

There are no fresh news available about this satellite. Check back as we update our databases every day.


Newsletter sign-up

Weekly statistics, charts and insights to help you stay on top of the space industry.